Location: Clatteringshaws Loch
(55.0508°N, 4.2860°W)
Time: 20:09:08
(UTC+01:00)

SR - Visible Passes

Search period start: 01 September 2014 00:00
Search period end: 11 September 2014 00:00
Orbit: 575 x 891 km, 66.7° (Epoch: 31 August)

Date Brightness Start Highest point End Pass type
(mag) Time Alt. Az. Time Alt. Az. Time Alt. Az.
01 Sep ? 04:06:02 18° S 04:09:55 41° ESE 04:15:28 10° NE visible
02 Sep ? 03:19:21 19° SSE 03:22:01 26° ESE 03:26:51 10° ENE visible
02 Sep ? 04:58:52 15° SW 05:03:41 86° NW 05:09:44 10° NE visible
03 Sep ? 02:32:37 15° SE 02:34:17 16° ESE 02:37:46 10° ENE visible
03 Sep ? 04:12:08 26° SSW 04:15:28 65° SE 04:21:25 10° NE visible
04 Sep ? 03:25:21 31° SSE 03:27:24 42° ESE 03:33:00 10° NE visible
04 Sep ? 05:04:52 16° WSW 05:09:34 60° NW 05:15:31 10° NE visible
05 Sep ? 02:38:33 26° SE 02:39:30 27° ESE 02:44:23 10° ENE visible
05 Sep ? 04:18:03 29° SW 04:21:11 85° NW 04:27:14 10° NE visible
06 Sep ? 01:51:42 17° ESE 01:51:45 17° ESE 01:55:19 10° ENE visible
06 Sep ? 03:31:13 45° S 03:32:58 66° SE 03:38:55 10° NE visible
06 Sep ? 05:10:43 14° W 05:15:35 45° NNW 05:21:19 10° NE visible
07 Sep ? 02:44:21 42° SE 02:44:53 43° ESE 02:50:30 10° NE visible
07 Sep ? 04:23:51 27° WSW 04:27:04 60° NW 04:33:01 10° NE visible
08 Sep ? 01:57:27 27° ESE 01:57:27 27° ESE 02:01:54 10° NE visible
08 Sep ? 03:36:57 49° SW 03:38:41 84° NW 03:44:44 10° NE visible
08 Sep ? 05:16:27 11° W 05:21:42 35° NNW 05:27:11 10° NE visible
09 Sep ? 01:10:31 16° E 01:10:31 16° E 01:12:52 10° ENE visible
09 Sep ? 02:50:01 65° SSE 02:50:27 67° SE 02:56:25 10° NE visible
09 Sep ? 04:29:32 22° W 04:33:05 44° NNW 04:38:49 10° NE visible
10 Sep ? 02:03:04 42° E 02:03:04 42° E 02:08:00 10° NE visible
10 Sep ? 03:42:35 40° W 03:44:33 59° NW 03:50:30 10° NE visible
10 Sep ? 05:22:44 10° WNW 05:27:56 30° NNW 05:33:08 10° NE visible
